Showing default

AETHER-11, 67382

Orbit data source: Space-Track

AETHER-11, 67382 is a payload satellite owned by Kepler Comms (CA) in SSO that was launched on Sun, 11 Jan 2026 UTC via an FALCON 9 launch vehicle from the Air Force Western Test Range (AFWTR). Payload-class satellites include a variety of spacecraft equipped with specific instruments for various scientific and technological missions. These include communications satellites like Starlink; space stations such as the ISS; scientific satellites like the Hubble; Earth observation satellites from companies like Planet Labs, Umbra, and HawkEye 360; GPS; miniature CubeSats for education and research; and military/defense satellites.

Loading next visibility...
Identifier
67382, 2026-004V
Orbit
SSO
Country
Flag of CACA
Related business
Manufacturer
Kepler Comms
Mission
Operational Commercial Communications
Bus & Motor
KEPLER GEN2B, Unknown motor
Mass
300 kg wet, 300 kg dry
Launch date (UTC)
2026-01-11 (4 months ago)
Launch vehicle
FALCON 9
Launch site
Air Force Western Test Range (AFWTR)
Object type
Payload
Rocket body
Debris
Shape & HBR
Box + 2 Pan, 7.6 m
Radar Cross Section
4.448 m²

Expand to show TLE details & history
Last TLE update: 13 hours ago

TLE from 13 hours ago
0 AETHER-11
1 67382U 26004V   26146.22896468  .00000759  00000-0  88094-4 0  9996
2 67382  97.8032 145.2680 0004501 170.5560 189.5742 14.88236428 20023
Epoch: 2026-05-26T05:29Z
TLE epoch observation values (Epoch: 2026-05-26T05:29:42.548Z)
Latitude
-0.00003°
Longitude
179.03531°
Altitude
609.581 km
Speed
7.553 km/s
True Right ascension
09h 41m 04s
True Declination
0° 00' 00"
Sunlit
Object was in daylight at epoch
Visualization orbit readout
Latitude
Unknown
Longitude
Unknown
Altitude
Unknown
Speed
Unknown
Apparent Right ascension
Unknown
Apparent Declination
Unknown
Sunlit
N/A
Visualization observer readout
Local Sidereal Time
03:35:48
Azimuth
Unknown
Elevation
Unknown
Doppler factor
Unknown
Orbital elements
Apogee altitude
603.612 km
Perigee altitude
597.33 km
Semi-major axis
6,978.608 km
Eccentricity
0.00045
Inclination
97.8032°
RAAN
145.268°
Arg. of periapsis
170.556°
True anomaly
189.56563°
Mean anomaly
189.5742°
Eccentric anomaly
189.56991°
Mean motion
3.72297 °/min
Orbital period
96.7 mins
BSTAR
0.000088094
Loading maneuver chart data...
Computing Atmospheric mass density...
Loading historical data...
Loading historical data...
Loading historical data...
Loading historical data...
Loading historical data...
Loading historical data...
Loading historical data...

Documentation

Showing up to 5 results
|